Onalaska, WI

4:06 PM CST on December 06, 2016 (GMT -0600)
La Crosse Municipal

Weather History for KLSE - March, 2013

Change the Weather History Date:

Monday, March 18, 2013

  Actual Average Record
Temperature  
Mean Temperature 24 °F 35 °F  
Max Temperature 32 °F 45 °F 80 °F (2012)
Min Temperature 15 °F 26 °F -3 °F (1923)
Degree Days  
Heating Degree Days 41 30  
Month to date heating degree days 715 602  
Since 1 July heating degree days 6044 6111  
Cooling Degree Days 0 0  
Month to date cooling degree days 0 0  
Year to date cooling degree days 0 0  
Moisture  
Dew Point 19 °F    
Average Humidity 80    
Maximum Humidity 92    
Minimum Humidity 67    
Precipitation  
Precipitation 0.24 in 0.07 in 1.45 in (1986)
Month to date precipitation 1.79 1.06  
Year to date precipitation 4.19 3.23  
Snow  
Snow 3.20 in 0.20 in 13.90 in (2005)
Month to date snowfall 15.4 5.0  
Since 1 July snowfall 55.4 39.5  
Snow Depth 3.00 in    
Sea Level Pressure  
Sea Level Pressure 29.72 in    
Wind  
Wind Speed 12 mph (SSW)    
Max Wind Speed 23 mph    
Max Gust Speed 38 mph    
Visibility 4 miles    
Events Fog , Snow    
T = Trace of Precipitation, MM = Missing Value Source: NWS Daily Summary

Daily Weather History Graph

Daily Weather History Graph

Search for Another Location

Airport or City:

Trip Planner

Search our weather history database for the weather conditions in past years. The results will help you decide how hot, cold, wet, or windy it might be!

Date:

Astronomy

Mar. 18, 2013 Rise Set
Actual Time 7:11 AM CDT 7:15 PM CDT
Civil Twilight 6:42 AM CDT 7:44 PM CDT
Nautical Twilight 6:09 AM CDT 8:17 PM CDT
Astronomical Twilight 5:34 AM CDT 8:52 PM CDT
Moon 10:59 AM CDT (3/18) 1:26 AM CDT (3/18)
Length of Visible Light 13h 01m
Length of Day
12h 03m
Waxing Crescent, 41% of the Moon is Illuminated
Mar 18
Waxing Crescent
Mar 19
First Quarter
Mar 27
Full
Apr 2
Last Quarter
Apr 10
New

Hourly Weather History & Observations

Time (CDT) Temp. Windchill Dew Point Humidity Pressure Visibility Wind Dir Wind Speed Gust Speed Precip Events Conditions
12:53 AM 26.1 °F 17.6 °F 17.1 °F 69% 29.99 in 10.0 mi SE 8.1 mph - N/A   Overcast
1:10 AM 26.6 °F 21.2 °F 17.6 °F 69% 29.96 in 10.0 mi SE 4.6 mph - N/A   Overcast
1:53 AM 25.0 °F 18.1 °F 16.0 °F 69% 29.98 in 10.0 mi ESE 5.8 mph - N/A   Scattered Clouds
2:53 AM 23.0 °F 17.0 °F 16.0 °F 74% 29.94 in 10.0 mi SE 4.6 mph - N/A   Clear
3:53 AM 21.9 °F 13.4 °F 16.0 °F 78% 29.88 in 10.0 mi ESE 6.9 mph - N/A   Scattered Clouds
4:53 AM 23.0 °F 13.9 °F 17.1 °F 78% 29.85 in 10.0 mi ESE 8.1 mph - N/A   Overcast
5:53 AM 23.0 °F 12.4 °F 18.0 °F 81% 29.81 in 10.0 mi East 10.4 mph - 0.00 in   Overcast
6:53 AM 25.0 °F 18.1 °F 19.9 °F 81% 29.79 in 7.0 mi ESE 5.8 mph - 0.00 in Snow Light Snow
7:01 AM 24.8 °F 16.9 °F 19.4 °F 80% 29.74 in 6.0 mi ESE 6.9 mph - 0.00 in Snow Light Snow
7:34 AM 26.6 °F 22.6 °F 21.2 °F 80% 29.74 in 1.8 mi Variable 3.5 mph - 0.00 in Snow Light Snow
7:53 AM 27.0 °F 21.6 °F 21.9 °F 81% 29.78 in 1.8 mi South 4.6 mph - 0.01 in Snow Light Snow
8:19 AM 26.6 °F 19.1 °F 23.0 °F 86% 29.73 in 0.8 mi SE 6.9 mph - 0.02 in Snow Light Snow
8:32 AM 26.6 °F 20.0 °F 24.8 °F 93% 29.72 in 0.5 mi SE 5.8 mph - 0.03 in Fog , Snow Snow
8:53 AM 26.1 °F 19.4 °F 24.1 °F 92% 29.77 in 0.5 mi SSE 5.8 mph - 0.05 in Fog , Snow Snow
9:00 AM 26.6 °F 20.0 °F 24.8 °F 93% 29.72 in 0.2 mi SSE 5.8 mph - 0.01 in Fog , Snow Snow
9:10 AM 26.6 °F 19.1 °F 24.8 °F 93% 29.71 in 0.5 mi SE 6.9 mph - 0.02 in Fog , Snow Light Snow
9:32 AM 26.6 °F 17.5 °F 24.8 °F 93% 29.70 in 0.8 mi SE 9.2 mph - 0.03 in Snow Light Snow
9:43 AM 26.6 °F 18.2 °F 24.8 °F 93% 29.69 in 1.2 mi SE 8.1 mph - 0.03 in Snow Light Snow
9:53 AM 27.0 °F 18.7 °F 24.1 °F 89% 29.74 in 1.2 mi SSE 8.1 mph - 0.03 in Snow Light Snow
10:38 AM 26.6 °F 19.1 °F 24.8 °F 93% 29.68 in 0.8 mi SSE 6.9 mph - 0.01 in Snow Light Snow
10:53 AM 27.0 °F 19.5 °F 25.0 °F 92% 29.72 in 0.5 mi SSE 6.9 mph - 0.02 in Fog , Snow Snow
11:01 AM 26.6 °F 19.1 °F 24.8 °F 93% 29.67 in 0.5 mi SSE 6.9 mph - 0.01 in Fog , Snow Snow
11:10 AM 26.6 °F 19.1 °F 24.8 °F 93% 29.66 in 0.2 mi SSE 6.9 mph - 0.02 in Fog , Snow Snow
11:17 AM 26.6 °F 19.1 °F 24.8 °F 93% 29.66 in 0.5 mi SSE 6.9 mph - 0.03 in Fog , Snow Snow
11:26 AM 26.6 °F 20.0 °F 24.8 °F 93% 29.65 in 0.8 mi SSE 5.8 mph - 0.03 in Snow Light Snow
11:53 AM 28.0 °F 20.8 °F 26.1 °F 92% 29.69 in 0.5 mi SSE 6.9 mph - 0.06 in Fog , Snow Snow
12:07 PM 28.4 °F 22.2 °F 26.6 °F 93% 29.64 in 0.2 mi SSE 5.8 mph - 0.01 in Fog , Snow Snow
12:35 PM 28.4 °F 22.2 °F 26.6 °F 93% 29.63 in 0.5 mi SSE 5.8 mph - 0.04 in Fog , Snow Snow
12:53 PM 28.9 °F 21.9 °F 27.0 °F 92% 29.66 in 0.5 mi South 6.9 mph - 0.06 in Fog , Snow Light Snow
1:05 PM 28.4 °F 21.2 °F 26.6 °F 93% 29.61 in 0.8 mi South 6.9 mph - 0.00 in Snow Light Snow
1:12 PM 30.2 °F 23.4 °F 26.6 °F 86% 29.61 in 1.2 mi SSE 6.9 mph - 0.01 in Snow Light Snow
1:24 PM 30.2 °F 22.6 °F 26.6 °F 86% 29.61 in 2.5 mi South 8.1 mph - 0.01 in Snow Light Snow
1:33 PM 30.2 °F 21.9 °F 26.6 °F 86% 29.60 in 3.0 mi South 9.2 mph - 0.01 in Snow Light Snow
1:46 PM 30.2 °F 21.9 °F 26.6 °F 86% 29.60 in 1.8 mi South 9.2 mph - 0.01 in Snow Light Snow
1:53 PM 30.0 °F 22.4 °F 27.0 °F 88% 29.63 in 2.0 mi South 8.1 mph - 0.01 in Snow Light Snow
1:59 PM 30.2 °F 21.9 °F 26.6 °F 86% 29.59 in 3.0 mi South 9.2 mph - 0.00 in Snow Light Snow
2:17 PM 28.4 °F 15.8 °F 23.0 °F 80% 29.60 in 2.5 mi West 18.4 mph 23.0 mph 0.00 in Snow Light Snow
2:23 PM 26.6 °F 13.1 °F 21.2 °F 80% 29.60 in 3.0 mi West 19.6 mph 25.3 mph 0.00 in Snow Light Snow
2:31 PM 26.6 °F 12.7 °F 19.4 °F 74% 29.60 in 7.0 mi West 20.7 mph 27.6 mph 0.00 in   Overcast
2:53 PM 24.1 °F 9.0 °F 17.1 °F 75% 29.66 in 8.0 mi West 21.9 mph 28.8 mph 0.00 in   Overcast
3:53 PM 21.9 °F 7.8 °F 14.0 °F 72% 29.70 in 3.0 mi West 17.3 mph 24.2 mph 0.00 in Snow Light Snow
3:55 PM 21.2 °F 6.4 °F 15.8 °F 80% 29.65 in 2.5 mi West 18.4 mph 24.2 mph 0.00 in Snow Light Snow
4:04 PM 21.2 °F 7.8 °F 15.8 °F 80% 29.65 in 1.0 mi West 15.0 mph - 0.00 in Snow Light Snow
4:17 PM 21.2 °F 4.5 °F 14.0 °F 74% 29.65 in 3.0 mi WNW 24.2 mph 29.9 mph 0.00 in Snow Light Snow
4:24 PM 21.2 °F 5.6 °F 14.0 °F 74% 29.65 in 6.0 mi West 20.7 mph 29.9 mph 0.00 in Snow Light Snow
4:53 PM 23.0 °F 6.3 °F 14.0 °F 68% 29.71 in 9.0 mi West 26.5 mph 29.9 mph 0.00 in   Overcast
5:11 PM 21.2 °F 5.2 °F 12.2 °F 68% 29.67 in 5.0 mi West 21.9 mph 38.0 mph 0.00 in   Overcast
5:42 PM 19.4 °F 3.2 °F 12.2 °F 74% 29.69 in 2.5 mi WNW 20.7 mph 29.9 mph 0.00 in Snow Light Snow
5:53 PM 19.0 °F 2.0 °F 10.9 °F 71% 29.75 in 1.8 mi West 23.0 mph 35.7 mph 0.00 in Snow Light Snow
6:01 PM 19.4 °F 3.2 °F 10.4 °F 68% 29.70 in 3.0 mi West 20.7 mph 31.1 mph 0.00 in Snow Light Snow
6:42 PM 19.4 °F 2.8 °F 10.4 °F 68% 29.71 in 3.0 mi WNW 21.9 mph 28.8 mph 0.00 in Snow Light Snow
6:53 PM 19.0 °F 2.7 °F 12.0 °F 74% 29.77 in 3.0 mi WNW 20.7 mph 25.3 mph 0.00 in Snow Light Snow
6:59 PM 19.4 °F 5.0 °F 12.2 °F 74% 29.72 in 1.8 mi West 16.1 mph 25.3 mph 0.00 in Snow Light Snow
7:09 PM 17.6 °F 0.1 °F 10.4 °F 73% 29.72 in 3.0 mi West 23.0 mph 31.1 mph 0.00 in Snow Light Snow
7:33 PM 17.6 °F 2.7 °F 8.6 °F 68% 29.72 in 10.0 mi West 16.1 mph 25.3 mph 0.00 in   Overcast
7:53 PM 18.0 °F 3.6 °F 9.0 °F 68% 29.77 in 10.0 mi WNW 15.0 mph 25.3 mph 0.00 in   Overcast
8:53 PM 17.1 °F 1.5 °F 10.0 °F 74% 29.80 in 4.0 mi West 17.3 mph 25.3 mph 0.00 in Snow Light Snow
9:45 PM 15.8 °F 0.3 °F 8.6 °F 73% 29.76 in 7.0 mi West 16.1 mph 21.9 mph 0.00 in Snow Light Snow
9:53 PM 16.0 °F -1.3 °F 9.0 °F 74% 29.82 in 7.0 mi West 20.7 mph 25.3 mph 0.00 in Snow Light Snow
10:53 PM 16.0 °F -0.9 °F 8.1 °F 71% 29.83 in 6.0 mi West 19.6 mph 28.8 mph 0.00 in Snow Light Snow
11:53 PM 15.1 °F 0.5 °F 7.0 °F 70% 29.83 in 10.0 mi West 13.8 mph - 0.00 in   Overcast